• en Suisse
  • Liste des pays
  • À 7 jours
  • Température de l'eau
  • Carte satellitaire
  • Carte météo
  • Widgets météo
  • user-avatar
    Se connecter

    Météo par heure à Almazovo

    Ce jour, 24 Mai, Jeudi

    Heure Température Précipitation Vent Pression Humidité
    00:00 +17°C° 0 mm 2 m/s 748 mmHg 84%
    01:00 +16°C° 0,1 mm 2 m/s 747 mmHg 85%
    02:00 +16°C° 0,1 mm 2 m/s 747 mmHg 86%
    03:00 +16°C° 0 mm 2 m/s 747 mmHg 88%
    04:00 +16°C° 0,2 mm 2 m/s 747 mmHg 88%
    05:00 +16°C° 0,2 mm 2 m/s 746 mmHg 88%
    06:00 +16°C° 0,2 mm 3 m/s 746 mmHg 88%
    07:00 +17°C° 0,2 mm 3 m/s 746 mmHg 87%
    08:00 +18°C° 0,2 mm 3 m/s 746 mmHg 85%
    09:00 +19°C° 0,2 mm 3 m/s 746 mmHg 84%
    10:00 +20°C° 0,2 mm 4 m/s 746 mmHg 80%
    11:00 +21°C° 0,2 mm 4 m/s 746 mmHg 76%
    12:00 +22°C° 0,2 mm 5 m/s 746 mmHg 72%
    13:00 +22°C° 0,1 mm 5 m/s 745 mmHg 71%
    14:00 +22°C° 0,1 mm 5 m/s 745 mmHg 69%
    15:00 +23°C° 0,1 mm 6 m/s 745 mmHg 67%
    16:00 +22°C° 0,2 mm 5 m/s 745 mmHg 70%
    17:00 +22°C° 0,2 mm 5 m/s 745 mmHg 72%
    18:00 +21°C° 0,2 mm 5 m/s 745 mmHg 75%
    19:00 +20°C° 0 mm 5 m/s 745 mmHg 78%
    20:00 +19°C° 0 mm 4 m/s 745 mmHg 82%
    21:00 +17°C° 0 mm 4 m/s 745 mmHg 85%
    22:00 +17°C° 0 mm 4 m/s 745 mmHg 85%
    23:00 +15°C° 0 mm 5 m/s 745 mmHg 84%

    Demain, 25 Mai, Vendredi

    Heure Température Précipitation Vent Pression Humidité
    00:00 +15°C° 0 mm 5 m/s 745 mmHg 84%
    01:00 +14°C° 0 mm 5 m/s 745 mmHg 84%
    02:00 +14°C° 0 mm 5 m/s 745 mmHg 83%
    03:00 +14°C° 0 mm 5 m/s 745 mmHg 83%
    04:00 +14°C° 0 mm 6 m/s 746 mmHg 85%
    05:00 +13°C° 0 mm 6 m/s 746 mmHg 87%
    06:00 +12°C° 0 mm 7 m/s 746 mmHg 89%
    07:00 +14°C° 0 mm 7 m/s 747 mmHg 84%
    08:00 +15°C° 0 mm 8 m/s 747 mmHg 80%
    09:00 +16°C° 0 mm 8 m/s 748 mmHg 75%
    10:00 +17°C° 0 mm 8 m/s 748 mmHg 70%
    11:00 +17°C° 0 mm 8 m/s 749 mmHg 65%
    12:00 +18°C° 0 mm 8 m/s 749 mmHg 59%
    13:00 +18°C° 0 mm 8 m/s 749 mmHg 57%
    14:00 +18°C° 0 mm 8 m/s 750 mmHg 55%
    15:00 +18°C° 0 mm 8 m/s 750 mmHg 52%
    16:00 +17°C° 0 mm 7 m/s 750 mmHg 55%
    17:00 +17°C° 0 mm 6 m/s 750 mmHg 58%
    18:00 +16°C° 0 mm 6 m/s 751 mmHg 61%
    19:00 +15°C° 0 mm 5 m/s 751 mmHg 63%
    20:00 +13°C° 0 mm 5 m/s 752 mmHg 65%
    21:00 +12°C° 0 mm 4 m/s 752 mmHg 67%
    22:00 +11°C° 0 mm 4 m/s 753 mmHg 66%
    23:00 +10°C° 0 mm 4 m/s 753 mmHg 66%

    Après-demain, 26 Mai, Samedi

    Heure Température Précipitation Vent Pression Humidité
    00:00 +10°C° 0 mm 4 m/s 754 mmHg 66%
    01:00 +8°C° 0 mm 4 m/s 754 mmHg 66%
    02:00 +7°C° 0 mm 4 m/s 755 mmHg 67%
    03:00 +8°C° 0 mm 3 m/s 755 mmHg 67%
    04:00 +8°C° 0 mm 3 m/s 755 mmHg 69%
    05:00 +8°C° 0 mm 3 m/s 756 mmHg 71%
    06:00 +8°C° 0 mm 3 m/s 756 mmHg 72%
    07:00 +10°C° 0 mm 4 m/s 757 mmHg 66%
    08:00 +12°C° 0 mm 4 m/s 757 mmHg 59%
    09:00 +13°C° 0 mm 5 m/s 757 mmHg 53%
    10:00 +14°C° 0 mm 5 m/s 757 mmHg 52%
    11:00 +15°C° 0 mm 5 m/s 758 mmHg 50%
    12:00 +16°C° 0 mm 5 m/s 758 mmHg 49%
    13:00 +16°C° 0 mm 5 m/s 757 mmHg 49%
    14:00 +17°C° 0 mm 4 m/s 757 mmHg 49%
    15:00 +18°C° 0 mm 4 m/s 757 mmHg 49%
    16:00 +18°C° 0 mm 4 m/s 757 mmHg 51%
    17:00 +17°C° 0 mm 3 m/s 757 mmHg 54%
    18:00 +17°C° 0 mm 3 m/s 756 mmHg 56%
    19:00 +16°C° 0 mm 2 m/s 757 mmHg 60%
    20:00 +14°C° 0 mm 2 m/s 757 mmHg 64%
    21:00 +12°C° 0 mm 2 m/s 757 mmHg 68%
    22:00 +12°C° 0 mm 2 m/s 757 mmHg 69%
    23:00 +10°C° 0 mm 2 m/s 757 mmHg 70%

    27 Mai, Dimanche

    Heure Température Précipitation Vent Pression Humidité
    00:00 +9°C° 0 mm 2 m/s 757 mmHg 70%
    01:00 +9°C° 0 mm 2 m/s 757 mmHg 72%
    02:00 +9°C° 0 mm 2 m/s 757 mmHg 74%
    03:00 +8°C° 0 mm 2 m/s 757 mmHg 75%
    04:00 +10°C° 0 mm 1 m/s 757 mmHg 76%
    05:00 +10°C° 0 mm 1 m/s 757 mmHg 76%
    06:00 +11°C° 0 mm 1 m/s 757 mmHg 76%
    07:00 +12°C° 0 mm 2 m/s 757 mmHg 70%
    08:00 +14°C° 0 mm 2 m/s 757 mmHg 65%
    09:00 +15°C° 0 mm 2 m/s 757 mmHg 59%
    10:00 +16°C° 0 mm 2 m/s 756 mmHg 56%
    11:00 +17°C° 0 mm 2 m/s 756 mmHg 52%
    12:00 +18°C° 0 mm 2 m/s 756 mmHg 49%
    13:00 +19°C° 0 mm 2 m/s 755 mmHg 48%
    14:00 +19°C° 0 mm 2 m/s 755 mmHg 47%
    15:00 +20°C° 0 mm 2 m/s 754 mmHg 47%
    16:00 +19°C° 0 mm 2 m/s 754 mmHg 51%
    17:00 +19°C° 0 mm 2 m/s 754 mmHg 54%
    18:00 +19°C° 0 mm 2 m/s 753 mmHg 58%
    19:00 +17°C° 0 mm 2 m/s 753 mmHg 62%
    20:00 +16°C° 0 mm 2 m/s 753 mmHg 67%
    21:00 +14°C° 0 mm 2 m/s 753 mmHg 71%
    22:00 +13°C° 0 mm 2 m/s 753 mmHg 72%
    23:00 +13°C° 0 mm 2 m/s 753 mmHg 74%

    28 Mai, Lundi

    Heure Température Précipitation Vent Pression Humidité
    00:00 +12°C° 0 mm 2 m/s 752 mmHg 75%
    01:00 +11°C° 0 mm 3 m/s 752 mmHg 76%
    02:00 +10°C° 0 mm 3 m/s 752 mmHg 78%
    03:00 +10°C° 0 mm 3 m/s 752 mmHg 79%
    04:00 +10°C° 0 mm 3 m/s 752 mmHg 79%
    05:00 +11°C° 0 mm 3 m/s 752 mmHg 79%
    06:00 +11°C° 0 mm 3 m/s 752 mmHg 80%
    07:00 +13°C° 0 mm 3 m/s 752 mmHg 76%
    08:00 +16°C° 0 mm 3 m/s 753 mmHg 73%
    09:00 +18°C° 0 mm 3 m/s 753 mmHg 70%
    10:00 +19°C° 0 mm 3 m/s 753 mmHg 68%
    11:00 +20°C° 0 mm 4 m/s 753 mmHg 66%
    12:00 +21°C° 0 mm 4 m/s 753 mmHg 64%
    13:00 +21°C° 0,1 mm 4 m/s 753 mmHg 61%
    14:00 +21°C° 0,1 mm 5 m/s 753 mmHg 58%
    15:00 +22°C° 0,1 mm 5 m/s 753 mmHg 55%
    16:00 +21°C° 0 mm 5 m/s 753 mmHg 56%
    17:00 +20°C° 0 mm 4 m/s 753 mmHg 58%
    18:00 +19°C° 0 mm 4 m/s 754 mmHg 59%
    19:00 +17°C° 0 mm 4 m/s 754 mmHg 61%
    20:00 +14°C° 0 mm 3 m/s 754 mmHg 64%
    21:00 +12°C° 0 mm 3 m/s 755 mmHg 66%
    22:00 +11°C° 0 mm 3 m/s 755 mmHg 66%
    23:00 +11°C° 0 mm 3 m/s 755 mmHg 67%

    29 Mai, Mardi

    Heure Température Précipitation Vent Pression Humidité
    00:00 +10°C° 0 mm 2 m/s 756 mmHg 68%
    01:00 +9°C° 0 mm 2 m/s 756 mmHg 69%
    02:00 +9°C° 0 mm 2 m/s 756 mmHg 70%
    03:00 +9°C° 0 mm 1 m/s 756 mmHg 70%
    04:00 +10°C° 0 mm 1 m/s 757 mmHg 70%
    05:00 +11°C° 0 mm 1 m/s 757 mmHg 70%
    06:00 +12°C° 0 mm 1 m/s 757 mmHg 69%
    07:00 +13°C° 0 mm 1 m/s 757 mmHg 64%
    08:00 +15°C° 0 mm 2 m/s 757 mmHg 59%
    09:00 +17°C° 0 mm 2 m/s 757 mmHg 54%
    10:00 +18°C° 0 mm 2 m/s 756 mmHg 52%
    11:00 +19°C° 0 mm 2 m/s 756 mmHg 49%
    12:00 +20°C° 0 mm 2 m/s 756 mmHg 46%
    13:00 +20°C° 0 mm 2 m/s 756 mmHg 47%
    14:00 +21°C° 0 mm 2 m/s 755 mmHg 47%
    15:00 +22°C° 0 mm 3 m/s 755 mmHg 48%
    16:00 +22°C° 0 mm 3 m/s 754 mmHg 52%
    17:00 +21°C° 0 mm 2 m/s 754 mmHg 56%
    18:00 +21°C° 0 mm 2 m/s 753 mmHg 60%
    19:00 +19°C° 0 mm 2 m/s 753 mmHg 64%
    20:00 +18°C° 0 mm 3 m/s 752 mmHg 68%
    21:00 +16°C° 0 mm 3 m/s 752 mmHg 72%
    22:00 +14°C° 0 mm 3 m/s 752 mmHg 72%
    23:00 +14°C° 0 mm 3 m/s 752 mmHg 72%
    Voir plus